EW9842 Weather Reports


Display with metric or nautical units.
time (UTC)temp
F
wind
direction
speed
MPH
gust
MPH
rain 1hr
in
rain 24hr
in
rain mn
in
humidity
%
barometer
mb
20260902004535 65 285 8.0 17.0 0.00 0.00 0.00 61 1012.9
20260902003030 65 293 8.0 18.0 0.00 0.00 0.00 61 1012.7
20260902001552 65 293 7.0 20.0 0.00 0.00 0.00 62 1012.7
20260902000111 65 296 8.0 15.0 0.00 0.00 0.00 63 1012.7
20260901233033 65 332 7.0 17.0 0.00 0.00 0.00 62 1012.7
20260901231532 68 338 8.0 16.0 0.00 0.00 0.00 59 1012.5
20260901224649 70 322 9.0 19.0 0.00 0.00 0.00 56 1012.3
20260901223111 70 312 9.0 20.0 0.00 0.00 0.00 56 1012.2
20260901221535 72 308 9.0 19.0 0.00 0.00 0.00 55 1012.1
20260901220035 72 311 8.0 16.0 0.00 0.00 0.00 57 1011.8
20260901214536 70 348 8.0 17.0 0.00 0.00 0.00 57 1011.8
20260901213035 70 346 8.0 15.0 0.00 0.00 0.00 57 1012.0
20260901211608 70 336 7.0 16.0 0.00 0.00 0.00 57 1012.2
20260901210034 70 337 7.0 16.0 0.00 0.00 0.00 58 1012.3
20260901203031 69 332 8.0 18.0 0.00 0.00 0.00 58 1012.5
20260901201534 69 344 8.0 15.0 0.00 0.00 0.00 58 1012.7
20260901200152 69 351 5.0 17.0 0.00 0.00 0.00 59 1012.9
20260901193035 68 337 6.0 14.0 0.00 0.00 0.00 59 1013.3
20260901184535 67 24 4.0 13.0 0.00 0.00 0.00 60 1013.7
20260901183034 67 25 4.0 12.0 0.00 0.00 0.00 62 1013.8
20260901180034 65 26 5.0 13.0 0.00 0.00 0.00 64 1014.0
20260901174531 64 359 4.0 8.0 0.00 0.00 0.00 68 1014.0
20260901173034 62 30 2.0 8.0 0.00 0.00 0.00 71 1014.0
20260901171533 62 343 3.0 7.0 0.00 0.00 0.00 71 1014.1
20260901170033 60 350 2.0 6.0 0.00 0.00 0.00 74 1014.0
20260901164532 59 16 1.0 4.0 0.00 0.00 0.00 77 1014.0
20260901163033 58 350 2.0 6.0 0.00 0.00 0.00 81 1014.0
20260901161531 55 47 0.0 3.0 0.00 0.00 0.00 85 1013.9
20260901160031 54 67 0.0 2.0 0.00 0.00 0.00 87 1013.8
20260901154535 52 111 0.0 3.0 0.00 0.00 0.00 87 1013.8
20260901153036 51 111 1.0 4.0 0.00 0.00 0.00 87 1013.8
20260901151610 48 125 4.0 8.0 0.00 0.00 0.00 86 1013.6
20260901143035 48 139 3.0 5.0 0.00 0.00 0.00 86 1013.5
20260901140032 48 152 4.0 6.0 0.00 0.00 0.00 84 1013.3
20260901134530 49 150 4.0 6.0 0.00 0.00 0.00 82 1013.1
20260901131533 47 158 5.0 8.0 0.00 0.00 0.00 84 1012.9
20260901130031 46 155 4.0 6.0 0.00 0.00 0.00 85 1012.9
20260901124535 47 156 4.0 6.0 0.00 0.00 0.00 85 1012.8
20260901123033 47 149 4.0 7.0 0.00 0.00 0.00 83 1012.8
20260901121643 47 154 4.0 6.0 0.00 0.00 0.00 82 1012.8
20260901120029 48 161 4.0 6.0 0.00 0.00 0.00 80 1012.7
20260901114650 49 159 3.0 5.0 0.00 0.00 0.00 80 1012.8
20260901113034 49 152 3.0 6.0 0.00 0.00 0.00 79 1012.8
20260901111531 49 156 3.0 6.0 0.00 0.00 0.00 78 1012.7
20260901110035 49 156 3.0 6.0 0.00 0.00 0.00 77 1012.8
20260901104531 50 157 5.0 7.0 0.00 0.00 0.00 76 1012.8
20260901103035 50 161 4.0 7.0 0.00 0.00 0.00 76 1012.9
20260901101531 50 147 3.0 5.0 0.00 0.00 0.00 76 1012.9
20260901100032 50 151 3.0 7.0 0.00 0.00 0.00 75 1012.9
20260901094609 50 164 4.0 6.0 0.00 0.00 0.00 76 1012.8
20260901093111 50 150 3.0 5.0 0.00 0.00 0.00 75 1012.8
20260901091530 50 154 3.0 6.0 0.00 0.00 0.00 75 1012.8
20260901090031 51 146 4.0 6.0 0.00 0.00 0.00 75 1012.8
20260901083035 52 160 3.0 5.0 0.00 0.00 0.00 70 1012.9
20260901081537 53 156 4.0 6.0 0.00 0.00 0.00 68 1013.0
20260901080111 52 161 4.0 7.0 0.00 0.00 0.00 71 1012.9
20260901074531 52 152 3.0 6.0 0.00 0.00 0.00 71 1012.8
20260901073037 52 157 3.0 6.0 0.00 0.00 0.00 71 1012.8
20260901071534 53 157 3.0 6.0 0.00 0.00 0.00 70 1012.8
20260901070111 53 158 3.0 6.0 0.00 0.00 0.00 71 1012.8
20260901064537 53 153 4.0 6.0 0.00 0.00 0.00 70 1012.9
20260901063035 53 157 4.0 6.0 0.00 0.00 0.00 71 1013.1
20260901053037 55 145 3.0 7.0 0.00 0.00 0.00 71 1013.2
20260901051534 55 136 4.0 8.0 0.00 0.00 0.00 71 1013.2
20260901050032 56 151 3.0 6.0 0.00 0.00 0.00 69 1013.3
20260901043030 56 150 3.0 6.0 0.00 0.00 0.00 69 1013.1
20260901041535 57 155 4.0 7.0 0.00 0.00 0.00 68 1013.0
20260901040035 58 163 4.0 6.0 0.00 0.00 0.00 68 1012.9
20260901034534 59 183 3.0 5.0 0.00 0.00 0.00 68 1012.8
20260901033037 60 149 3.0 7.0 0.00 0.00 0.00 65 1012.7
20260901023035 62 160 4.0 7.0 0.00 0.00 0.00 67 1012.4
20260901021535 63 155 4.0 7.0 0.00 0.00 0.00 71 1012.3
20260901020036 64 149 4.0 7.0 0.00 0.00 0.00 69 1012.3
20260901014535 68 140 3.0 5.0 0.00 0.00 0.00 64 1012.3
20260901011531 75 232 2.0 5.0 0.00 0.00 0.00 47 1012.3
20260901010032 77 247 2.0 6.0 0.00 0.00 0.00 41 1012.3